Tracking 32954 objects as of 19-Jan-2026
HD Live streaming from Space Station
objects crossing your sky now

STARLINK-30189

Track STARLINK-30189 now!
10-day predictions
STARLINK-30189 is classified as:


NORAD ID: 57430
Int'l Code: 2023-105A
Perigee: 470.0 km
Apogee: 471.7 km
Inclination: 43.0 °
Period: 93.9 minutes
Semi major axis: 6841 km
RCS: Unknown
Launch date: July 24, 2023
Source: United States (US)
Launch site: AIR FORCE EASTERN TEST RANGE (AFETR)
Your satellite tracking list
Your tracking list is empty




NASA's NSSDC Master Catalog

Two Line Element Set (TLE):
1 57430U 23105A   26019.10893087  .00001155  00000-0  42662-4 0  9990
2 57430  43.0005 163.3065 0001282 269.3788  90.6919 15.34057478138159
Source of the keplerian elements: AFSPC